Weather History for Morelia, Mexico

Change the Weather History Date:

Sunday, June 9, 2013

  Actual Average Record
Temperature  
Mean Temperature 70 °F -  
Max Temperature 81 °F 79 °F 96 °F (2005)
Min Temperature 58 °F 58 °F 55 °F (2006)
Cooling Degree Days 4    
Growing Degree Days 20 (Base 50)    
Moisture  
Dew Point 57 °F    
Average Humidity 74    
Maximum Humidity 100    
Minimum Humidity 42    
Precipitation  
Precipitation 0.03 in 0.19 in - ()
Sea Level Pressure  
Sea Level Pressure 29.98 in    
Wind  
Wind Speed 5 mph ()    
Max Wind Speed 20 mph    
Max Gust Speed -    
Visibility 6.1 miles    
Events Rain    
Averages and records for this station are not official NWS values.
T = Trace of Precipitation, MM = Missing Value Source: Averaged Metar Reports

Daily Weather History Graph

Daily Weather History Graph

Search for Another Location

Airport:

Trip Planner

Search our weather history database for the weather conditions in past years. The results will help you decide how hot, cold, wet, or windy it might be!

Date:

Astronomy

Jun. 09, 2013 Rise Set
Actual Time 7:04 AM CDT 8:22 PM CDT
Civil Twilight 6:39 AM CDT 8:47 PM CDT
Nautical Twilight 6:10 AM CDT 9:16 PM CDT
Astronomical Twilight 5:40 AM CDT 9:46 PM CDT
Moon 7:55 AM CDT (6/9) 9:19 PM CDT (6/9)
Length of Visible Light 14h 07m
Length of Day
13h 18m
New Moon, 1% of the Moon is Illuminated
Jun 9
New Moon
Jun 16
First Quarter
Jun 23
Full
Jun 29
Last Quarter
Jul 8
New

Hourly Weather History & Observations

Time (CDT) Temp. Dew Point Humidity Pressure Visibility Wind Dir Wind Speed Gust Speed Precip Events Conditions
12:41 AM 62.6 °F 57.2 °F 82% 29.73 in 7.0 mi SW 8.1 mph - N/A   Scattered Clouds
1:40 AM 64.4 °F 57.2 °F 77% 30.19 in 7.0 mi West 6.9 mph - N/A   Scattered Clouds
2:40 AM 64.4 °F 57.2 °F 77% 30.17 in 7.0 mi West 6.9 mph - N/A   Mostly Cloudy
3:46 AM 59.0 °F 57.2 °F 94% 29.69 in 5.0 mi North 6.9 mph - N/A Rain Rain
3:50 AM 65 °F 58 °F 71% 29.75 in 5 mi North 2.2 mph - -   Partly Cloudy
4:41 AM 59.0 °F 57.2 °F 94% 30.17 in 5.0 mi ESE 5.8 mph - N/A   Overcast
5:42 AM 59.0 °F 59.0 °F 100% 30.18 in 5.0 mi Variable 2.3 mph - N/A Rain Light Rain
6:43 AM 59.0 °F 59.0 °F 100% 29.76 in 6.0 mi Calm Calm - N/A   Overcast
6:50 AM 61 °F 58 °F 87% 29.81 in 5 mi North 2.2 mph - -   Partly Cloudy
7:48 AM 59.0 °F 59.0 °F 100% 30.21 in 6.0 mi Calm Calm - N/A   Overcast
8:48 AM 59.0 °F 57.2 °F 94% 30.23 in 4.0 mi Calm Calm - N/A   Overcast
9:48 AM 60.8 °F 59.0 °F 94% 29.83 in 5.0 mi Calm Calm - N/A   Mostly Cloudy
9:50 AM 61 °F 57 °F 84% 29.86 in 6 mi North 2.2 mph - - Rain Light Drizzle
10:41 AM 66.2 °F 59.0 °F 78% 30.23 in 6.0 mi Calm Calm - N/A   Mostly Cloudy
11:43 AM 68.0 °F 60.8 °F 78% 30.22 in 6.0 mi SSW 9.2 mph - N/A   Mostly Cloudy
12:50 PM 80 °F 61 °F 42% 29.86 in 7 mi SSW 2.2 mph - -   Partly Cloudy
12:50 PM 73.4 °F 59.0 °F 61% 29.77 in 6.0 mi South 11.5 mph - N/A   Mostly Cloudy
2:50 PM 71.6 °F 55.4 °F 57% 30.18 in 6.0 mi SSW 16.1 mph - N/A   Mostly Cloudy
3:45 PM 71 °F 57 °F 51% 29.79 in 7 mi South 6.7 mph - -   Partly Cloudy
4:46 PM 71.6 °F 57.2 °F 60% 30.15 in 7.0 mi SSE 19.6 mph - N/A   Mostly Cloudy
5:48 PM 69.8 °F 55.4 °F 60% 30.13 in 7.0 mi SSW 9.2 mph - N/A   Mostly Cloudy
6:41 PM 69.8 °F 55.4 °F 60% 29.69 in 7.0 mi South 13.8 mph - N/A   Mostly Cloudy
6:45 PM 71 °F 57 °F 52% 29.68 in 7 mi SSE 4.5 mph - -   Partly Cloudy
7:43 PM 68.0 °F 53.6 °F 60% 30.12 in 7.0 mi SSW 11.5 mph - N/A   Mostly Cloudy
8:41 PM 66.2 °F 51.8 °F 60% 30.17 in 7.0 mi Calm Calm - N/A   Mostly Cloudy
9:41 PM 64.4 °F 53.6 °F 68% 29.76 in 6.0 mi West 3.5 mph - N/A   Mostly Cloudy
9:55 PM 66 °F 55 °F 60% 29.74 in 5 mi SSW 4.5 mph - -   Partly Cloudy
10:45 PM 62.6 °F 53.6 °F 72% 30.22 in 6.0 mi Calm Calm - N/A   Mostly Cloudy
11:43 PM 60.8 °F 53.6 °F 77% 30.24 in 6.0 mi Calm Calm - N/A   Mostly Cloudy